カタログに戻る

STARLINK-31559

運用中通信VLEO
NORAD 59358·PAYLOAD·🇺🇸 United States

打ち上げ Mar 31, 2024 から Cape Canaveral Space Force Station

Loading…

次のパス (今後24時間)

TLE

最新Source: CelesTrak SupGP

元期: Sep 14, 2026, 21:04 UTC

1 59358C 24060L   26257.87826389  .00014497  00000+0  52473-3 0  2570
2 59358  43.0004 271.2895 0001634 263.2160 264.2682 15.27592385    19

AllMySatでSTARLINK-31559をリアルタイム追跡

Download on the App Store